TimeCST,TemperatureF,Dew PointF,Humidity,Sea Level PressureIn,VisibilityMPH,Wind Direction,Wind SpeedMPH,Gust SpeedMPH,PrecipitationIn,Events,Conditions,WindDirDegrees,DateUTC
12:24 AM,53.6,53.6,100,30.23,5.0,NW,5.8,-,N/A,,Overcast,310,2012-11-28 06:24:00
12:55 AM,52.9,52.2,97,30.24,5.0,WNW,6.9,-,N/A,,Overcast,300,2012-11-28 06:55:00
1:14 AM,53.6,51.8,94,30.24,6.0,NNW,9.2,-,N/A,,Overcast,330,2012-11-28 07:14:00
1:55 AM,52.3,51.3,96,30.24,8.0,NNW,10.4,-,N/A,,Overcast,340,2012-11-28 07:55:00
2:44 AM,51.8,50.0,94,30.26,10.0,NNW,6.9,-,N/A,,Overcast,340,2012-11-28 08:44:00
2:55 AM,51.6,50.0,94,30.26,10.0,NNW,9.2,-,N/A,,Overcast,330,2012-11-28 08:55:00
3:06 AM,51.8,50.0,94,30.27,10.0,NNW,10.4,-,N/A,,Overcast,340,2012-11-28 09:06:00
3:13 AM,51.8,50.0,94,30.27,10.0,NNW,10.4,-,N/A,,Overcast,330,2012-11-28 09:13:00
3:26 AM,51.8,50.0,94,30.27,9.0,NNW,9.2,-,N/A,,Overcast,340,2012-11-28 09:26:00
3:31 AM,51.8,50.0,94,30.27,9.0,NNW,9.2,-,N/A,,Overcast,340,2012-11-28 09:31:00
3:47 AM,51.8,50.0,94,30.27,7.0,NW,10.4,-,N/A,,Overcast,320,2012-11-28 09:47:00
3:55 AM,50.7,49.5,95,30.27,6.0,NNW,10.4,-,N/A,,Overcast,330,2012-11-28 09:55:00
3:56 AM,50.0,50.0,100,30.27,7.0,NNW,10.4,-,N/A,,Overcast,340,2012-11-28 09:56:00
4:48 AM,50.0,48.2,94,30.28,7.0,NW,8.1,-,N/A,,Overcast,320,2012-11-28 10:48:00
4:55 AM,50.2,48.4,94,30.28,7.0,NW,8.1,-,N/A,,Overcast,320,2012-11-28 10:55:00
5:02 AM,50.0,48.2,94,30.28,7.0,NW,5.8,-,N/A,,Overcast,320,2012-11-28 11:02:00
5:53 AM,50.0,48.2,94,30.30,8.0,NW,6.9,-,N/A,,Overcast,320,2012-11-28 11:53:00
5:55 AM,49.6,47.7,93,30.30,8.0,NNW,6.9,-,N/A,,Overcast,330,2012-11-28 11:55:00
6:06 AM,50.0,46.4,87,30.30,10.0,NNW,9.2,-,N/A,,Overcast,340,2012-11-28 12:06:00
6:17 AM,50.0,46.4,87,30.31,10.0,NNW,6.9,-,N/A,,Overcast,340,2012-11-28 12:17:00
6:21 AM,50.0,46.4,87,30.31,10.0,North,9.2,-,N/A,,Overcast,350,2012-11-28 12:21:00
6:55 AM,48.7,44.8,86,30.31,10.0,NNW,8.1,-,N/A,,Overcast,340,2012-11-28 12:55:00
7:55 AM,47.8,42.8,83,30.35,10.0,North,9.2,-,N/A,,Overcast,350,2012-11-28 13:55:00
8:41 AM,48.2,41.0,76,30.37,10.0,North,10.4,-,N/A,,Overcast,10,2012-11-28 14:41:00
8:55 AM,48.2,41.9,79,30.38,10.0,NNW,8.1,-,N/A,,Overcast,330,2012-11-28 14:55:00
9:32 AM,50.0,41.0,71,30.38,10.0,North,9.2,-,N/A,,Scattered Clouds,360,2012-11-28 15:32:00
9:55 AM,50.5,41.2,70,30.38,10.0,North,9.2,-,N/A,,Clear,10,2012-11-28 15:55:00
10:55 AM,53.2,41.0,63,30.36,10.0,North,8.1,-,N/A,,Clear,10,2012-11-28 16:55:00
11:55 AM,55.8,39.9,55,30.33,10.0,North,8.1,-,N/A,,Clear,350,2012-11-28 17:55:00
12:55 PM,58.5,39.7,50,30.31,10.0,NW,8.1,-,N/A,,Clear,320,2012-11-28 18:55:00
1:55 PM,60.4,37.4,42,30.29,10.0,NNW,8.1,-,N/A,,Clear,330,2012-11-28 19:55:00
2:55 PM,60.3,37.6,43,30.29,10.0,North,10.4,-,N/A,,Clear,10,2012-11-28 20:55:00
3:55 PM,59.2,38.1,46,30.30,10.0,NNE,6.9,-,N/A,,Clear,30,2012-11-28 21:55:00
4:55 PM,54.5,38.8,56,30.31,10.0,North,4.6,-,N/A,,Clear,360,2012-11-28 22:55:00
5:55 PM,50.5,39.6,66,30.33,10.0,NNE,4.6,-,N/A,,Clear,30,2012-11-28 23:55:00
6:55 PM,48.9,39.2,69,30.35,10.0,NNE,3.5,-,N/A,,Clear,30,2012-11-29 00:55:00
7:55 PM,45.9,39.2,78,30.36,10.0,NE,3.5,-,N/A,,Clear,40,2012-11-29 01:55:00
8:55 PM,44.6,40.3,85,30.37,10.0,East,3.5,-,N/A,,Clear,80,2012-11-29 02:55:00
9:55 PM,44.1,41.2,90,30.37,10.0,ENE,3.5,-,N/A,,Clear,70,2012-11-29 03:55:00
10:55 PM,42.4,40.5,93,30.36,10.0,ENE,3.5,-,N/A,,Clear,70,2012-11-29 04:55:00
11:55 PM,41.5,40.3,95,30.35,7.0,NE,3.5,-,N/A,,Clear,40,2012-11-29 05:55:00